This demonstration page uses our WeatherBlox Daily Observations layout. Learn more.

Left ArrowRight Arrow

40.92945, -100.16068

Hourly Observations for May 6, 2020

Temp ( °F °C ) Dew Point ( °F °C ) Humidity (%) Winds ( mph kmh ) Pressure ( in mb ) Visibility ( mi km ) Precip ( " mm )
12:15 am 00:15 Cloudy 49 9.3 42 5.5 77 77 N 6 9 30.27 1025 10 16.0934 0 0
12:35 am 00:35 Cloudy 48 9 42 5.7 80 80 N 7 11 30.28 1025 10 16.0934 0 0
12:55 am 00:55 Mostly Cloudy 48 9 42 5.4 78 78 N 7 11 30.29 1026 10 16.0934 0 0
1:15 am 01:15 Mostly Cloudy 49 9.3 41 5.1 75 75 N 9 15 30.31 1026 10 16.0934 0 0
1:35 am 01:35 Partly Cloudy 47 8.1 41 4.9 80 80 N 8 13 30.32 1027 10 16.0934 0 0
1:55 am 01:55 Clear 44 6.9 40 4.5 85 85 NW 6 9 30.33 1027 10 16.0934 0 0
2:15 am 02:15 Clear 44 6.4 40 4.2 86 86 WNW 7 11 30.34 1027 10 16.0934 0 0
2:35 am 02:35 Clear 43 5.9 39 4 88 88 W 8 13 30.34 1027 10 16.0934 0 0
2:55 am 02:55 Clear 42 5.5 39 4.1 91 91 WNW 8 13 30.35 1028 10 16.0934 0 0
3:15 am 03:15 Clear 42 5.4 39 3.8 90 90 NW 7 11 30.35 1028 10 16.0934 0 0
3:35 am 03:35 Clear 41 5 38 3.6 91 91 NW 8 13 30.37 1028 10 16.0934 0 0
3:55 am 03:55 Clear 40 4.5 38 3.2 91 91 NW 7 11 30.37 1029 10 16.0934 0 0
4:15 am 04:15 Clear 39 4.1 37 3 93 93 W 8 13 30.39 1029 10 16.0934 0 0
4:35 am 04:35 Clear 40 4.2 38 3.2 93 93 WNW 7 11 30.4 1029 10 16.0934 0 0
4:55 am 04:55 Clear 40 4.2 37 3 92 92 WNW 7 11 30.4 1029 10 16.0934 0 0
5:15 am 05:15 Clear 39 3.9 37 3 94 94 WNW 7 11 30.4 1029 10 16.0934 0 0
5:35 am 05:35 Clear 39 4.1 37 3 93 93 WNW 8 13 30.39 1029 10 16.0934 0 0
5:55 am 05:55 Clear 39 3.7 37 3 95 95 W 7 11 30.4 1030 10 16.0934 0 0
6:15 am 06:15 Clear 39 3.7 37 2.9 95 95 W 8 13 30.4 1030 10 16.0934 0 0
6:35 am 06:35 Sunny 39 4 37 3 93 93 WNW 9 15 30.4 1029 10 16.0934 0 0
6:55 am 06:55 Sunny 40 4.2 37 3 92 92 WNW 9 15 30.41 1030 10 16.0934 0 0
7:15 am 07:15 Sunny 40 4.3 38 3.2 93 93 WNW 7 11 30.42 1030 10 16.0934 0 0
7:35 am 07:35 Sunny 41 5.1 38 3.5 90 90 NW 9 15 30.41 1030 10 16.0934 0 0
7:55 am 07:55 Sunny 42 5.7 39 3.9 88 88 NW 10 17 30.4 1030 10 16.0934 0 0
8:15 am 08:15 Sunny 43 6.3 39 4.1 86 86 NW 9 15 30.4 1029 10 16.0934 0 0
8:35 am 08:35 Sunny 45 7 39 4 81 81 NW 10 17 30.39 1029 10 16.0934 0 0
8:55 am 08:55 Sunny 46 8 40 4.2 77 77 NNW 12 19 30.39 1029 10 16.0934 0 0
9:15 am 09:15 Sunny 49 9.4 39 3.9 69 69 NNW 13 20 30.37 1028 10 16.0934 0 0
9:35 am 09:35 Sunny 51 10.3 39 3.7 64 64 NNW 13 20 30.36 1028 10 16.0934 0 0
9:55 am 09:55 Sunny 52 11 37 3 58 58 NNW 13 20 30.35 1028 10 16.0934 0 0
10:15 am 10:15 Sunny 53 11.8 38 3.6 57 57 NNW 14 22 30.34 1028 10 16.0934 0 0
10:35 am 10:35 Sunny 54 12 38 3.6 57 57 NNW 14 22 30.34 1028 10 16.0934 0 0
10:55 am 10:55 Sunny 54 12.4 38 3.5 55 55 NNW 15 24 30.34 1027 10 16.0934 0 0
11:15 am 11:15 Sunny 55 12.9 39 4.1 55 55 NNW 13 20 30.33 1027 10 16.0934 0 0
11:35 am 11:35 Sunny 56 13.1 39 4 54 54 NNW 10 17 30.33 1027 10 16.0934 0 0
11:55 am 11:55 Sunny 56 13.5 40 4.6 55 55 N 9 15 30.32 1027 10 16.0934 0 0
12:15 pm 12:15 Sunny 57 13.8 41 4.8 55 55 NNW 10 17 30.31 1026 10 16.0934 0 0
12:35 pm 12:35 Sunny 57 14.1 39 4.1 51 51 N 10 17 30.29 1026 10 16.0934 0 0
12:55 pm 12:55 Sunny 58 14.2 39 3.7 49 49 NNW 7 11 30.29 1026 10 16.0934 0 0
1:15 pm 13:15 Sunny 58 14.7 40 4.3 50 50 N 8 13 30.28 1025 10 16.0934 0 0
1:35 pm 13:35 Sunny 59 14.8 38 3.6 47 47 NNE 3 6 30.27 1025 10 16.0934 0 0
1:55 pm 13:55 Sunny 60 15.4 40 4.7 49 49 N 9 15 30.26 1025 10 16.0934 0 0
2:15 pm 14:15 Sunny 60 15.5 40 4.6 48 48 N 7 11 30.24 1024 10 16.0934 0 0
2:35 pm 14:35 Sunny 60 15.5 39 3.8 46 46 NW 7 11 30.24 1024 10 16.0934 0 0
2:55 pm 14:55 Sunny 60 15.6 37 2.9 43 43 N 3 6 30.23 1024 10 16.0934 0 0
3:15 pm 15:15 Sunny 61 16 39 4 45 45 Calm 30.23 1024 10 16.0934 0 0
3:35 pm 15:35 Sunny 61 16.3 39 3.7 43 43 NW 5 7 30.21 1023 10 16.0934 0 0
3:55 pm 15:55 Sunny 61 16.2 37 2.7 41 41 Calm 30.21 1023 10 16.0934 0 0
4:15 pm 16:15 Sunny 62 16.7 41 4.9 46 46 N 5 7 30.2 1023 10 16.0934 0 0
4:35 pm 16:35 Sunny 61 16.3 37 2.8 41 41 Calm 30.19 1022 10 16.0934 0 0
4:55 pm 16:55 Sunny 62 16.5 37 2.9 40 40 Calm 30.18 1022 10 16.0934 0 0
5:15 pm 17:15 Sunny 61 16.2 38 3.4 43 43 NNE 3 6 30.17 1022 10 16.0934 0 0
5:35 pm 17:35 Sunny 61 16.2 39 4 44 44 NNW 6 9 30.16 1021 10 16.0934 0 0
5:55 pm 17:55 Sunny 62 16.6 39 4 43 43 E 5 7 30.16 1021 10 16.0934 0 0
6:15 pm 18:15 Sunny 61 16.2 39 3.8 44 44 E 5 7 30.15 1021 10 16.0934 0 0
6:35 pm 18:35 Sunny 61 16.3 40 4.4 45 45 NE 5 7 30.15 1021 10 16.0934 0 0
6:55 pm 18:55 Sunny 61 16.1 40 4.2 45 45 NE 5 7 30.16 1021 10 16.0934 0 0
7:15 pm 19:15 Sunny 61 16.1 37 2.7 41 41 Calm 30.15 1021 7 11.26538 0 0
7:35 pm 19:35 Sunny 60 15.3 38 3.4 45 45 NE 3 6 30.16 1021 10 16.0934 0 0
7:55 pm 19:55 Sunny 56 13.5 43 6.2 62 62 E 5 7 30.17 1022 10 16.0934 0 0
8:15 pm 20:15 Sunny 55 13 44 6.6 65 65 E 6 9 30.17 1022 10 16.0934 0 0
8:35 pm 20:35 Sunny 53 11.9 41 5.2 64 64 E 7 11 30.18 1022 10 16.0934 0 0
8:55 pm 20:55 Clear 52 11.3 42 5.3 67 67 E 6 9 30.19 1022 10 16.0934 0 0
9:15 pm 21:15 Clear 54 12.2 40 4.5 60 60 E 8 13 30.18 1022 10 16.0934 0 0
9:35 pm 21:35 Clear 54 12 40 4.4 60 60 E 8 13 30.18 1022 10 16.0934 0 0
9:55 pm 21:55 Clear 54 12 39 4.1 59 59 ESE 8 13 30.18 1022 10 16.0934 0 0
10:15 pm 22:15 Clear 53 11.6 39 4 60 60 ESE 8 13 30.19 1022 10 16.0934 0 0
10:35 pm 22:35 Clear 52 11.2 39 4 61 61 ESE 9 15 30.19 1022 10 16.0934 0 0
10:55 pm 22:55 Clear 51 10.5 39 4 64 64 ESE 10 17 30.19 1022 10 16.0934 0 0
11:15 pm 23:15 Clear 51 10.6 39 3.8 63 63 ESE 9 15 30.19 1022 10 16.0934 0 0
11:35 pm 23:35 Clear 49 9.5 40 4.2 70 70 ESE 8 13 30.2 1023 10 16.0934 0 0
11:55 pm 23:55 Clear 49 9.5 40 4.2 70 70 SE 8 13 30.2 1023 10 16.0934 0 0

Powered by AerisWeather